sat.trackr.live / text

‹ back to catalog

STARLINK-34626

NORAD 65082 · 2025-167E

PAYLOAD ACTIVE UNKNOWN

§ Identity

Operator
Country
US
Launch date
2025-08-04
Launch site
AFETR
Launch vehicle
Mass (kg)
RCS (m²)

Purposes: comms

External: N2YO · Heavens-Above · Gunter

§ Orbital elements

Epoch: 2026-05-25T01:25:36.965568Z

Period
93.37 min
Inclination
53.1593°
Eccentricity
0.0001028
Mean motion
15.42189203 rev/d
Perigee alt
438.9 km
Apogee alt
440.4 km
Semi-major
6,817.8 km
B*
6.3755e-4
RAAN
29.0841°
Arg perigee
81.1143°
Mean anomaly
278.9979°
Rev number
4,521

§ Raw data

STARLINK-346261 65082U 25167E   26145.05945562  .00027458  00000+0  63755-3 0  99902 65082  53.1593  29.0841 0001028  81.1143 278.9979 15.42189203 45210

JSON: /api/v1/satellites/65082 · /tle

For live sub-satellite position, see the globe view (requires WebGL).

§ Visibility from observer

Set your observer location to see the next 7 days of passes ≥ 10°. The values pass through the URL so the page stays shareable.

No JS? Fill the form by hand. The geolocation button needs JavaScript.